Estación Meteorológica de la Universidad de Murcia
Estación Meteorológica de la Universidad de Murcia
Universidad de Murcia
 

Humedad relativaHumedad relativa

 

Máxima: 100 % a las 05:02:00 del día 21/08/2019
Mínima: 39,9 % a las 17:26:00 del día 21/08/2019

||Humedad máxima últimos meses|| ---- ||Humedad mínima últimos meses||


Humedad máxima

  • 1 - 100 % del día 21/08/2019
  • 2 - 98,4 % del día 20/08/2019
  • 3 - 93,7 % del día 19/08/2019
  • 4 - 100 % del día 18/08/2019
  • 5 - 100 % del día 17/08/2019
  • 6 - 98 % del día 16/08/2019
  • 7 - 100 % del día 15/08/2019
  • 8 - 93,1 % del día 14/08/2019
  • 9 - 88,9 % del día 13/08/2019
  • 10 - 91,3 % del día 12/08/2019
  • 11 - 99,4 % del día 11/08/2019
  • 12 - 78,7 % del día 10/08/2019
  • 13 - 74,6 % del día 09/08/2019
  • 14 - 64,6 % del día 08/08/2019
  • 15 - 94,6 % del día 07/08/2019
  • 16 - 99,6 % del día 06/08/2019
  • 17 - 100 % del día 05/08/2019
  • 18 - 95,1 % del día 04/08/2019
  • 19 - 95,6 % del día 03/08/2019
  • 20 - 98,4 % del día 02/08/2019
  • 21 - 85,3 % del día 01/08/2019
  • 22 - 91,7 % del día 31/07/2019
  • 23 - 95 % del día 30/07/2019
  • 24 - 99,4 % del día 29/07/2019
  • 25 - 82,4 % del día 28/07/2019
  • 26 - 70,7 % del día 27/07/2019
  • 27 - 99,1 % del día 26/07/2019
  • 28 - 90,3 % del día 25/07/2019
  • 29 - 74,6 % del día 24/07/2019
  • 30 - 77,1 % del día 23/07/2019
  • 31 - 85,3 % del día 22/07/2019
  • 32 - 75,6 % del día 21/07/2019
  • 33 - 85,1 % del día 20/07/2019
  • 34 - 94 % del día 19/07/2019
  • 35 - 92,9 % del día 18/07/2019
  • 36 - 89,2 % del día 17/07/2019
  • 37 - 97,1 % del día 16/07/2019
  • 38 - 97,9 % del día 15/07/2019
  • 39 - 92,8 % del día 14/07/2019
  • 40 - 85,6 % del día 13/07/2019
  • 41 - 77,7 % del día 12/07/2019
  • 42 - 90,2 % del día 11/07/2019
  • 43 - 89,2 % del día 10/07/2019
  • 44 - 97,3 % del día 09/07/2019
  • 45 - 90,8 % del día 08/07/2019
  • 46 - 73,6 % del día 07/07/2019
  • 47 - 91,9 % del día 06/07/2019
  • 48 - 93 % del día 05/07/2019
  • 49 - 87,6 % del día 04/07/2019
  • 50 - 100 % del día 03/07/2019
  • 51 - 91,3 % del día 02/07/2019
  • 52 - 85,7 % del día 01/07/2019
  • 53 - 66,6 % del día 30/06/2019
  • 54 - 69,6 % del día 29/06/2019
  • 55 - 80,4 % del día 28/06/2019
  • 56 - 84,9 % del día 27/06/2019
  • 57 - 92,5 % del día 26/06/2019
  • 58 - 95,8 % del día 25/06/2019
  • 59 - 79,2 % del día 24/06/2019
  • 60 - 94 % del día 23/06/2019

||Volver al inicio de la página||


Humedad mínima

  • 1 - 39,9 % del día 21/08/2019
  • 2 - 48,9 % del día 20/08/2019
  • 3 - 37,2 % del día 19/08/2019
  • 4 - 23,5 % del día 18/08/2019
  • 5 - 31,5 % del día 17/08/2019
  • 6 - 35,7 % del día 16/08/2019
  • 7 - 36 % del día 15/08/2019
  • 8 - 43 % del día 14/08/2019
  • 9 - 46,7 % del día 13/08/2019
  • 10 - 16,4 % del día 12/08/2019
  • 11 - 40,2 % del día 11/08/2019
  • 12 - 24,9 % del día 10/08/2019
  • 13 - 14,3 % del día 09/08/2019
  • 14 - 19,8 % del día 08/08/2019
  • 15 - 14,3 % del día 07/08/2019
  • 16 - 23,5 % del día 06/08/2019
  • 17 - 48,9 % del día 05/08/2019
  • 18 - 41,3 % del día 04/08/2019
  • 19 - 43,2 % del día 03/08/2019
  • 20 - 47,8 % del día 02/08/2019
  • 21 - 36,3 % del día 01/08/2019
  • 22 - 40,7 % del día 31/07/2019
  • 23 - 29,6 % del día 30/07/2019
  • 24 - 33,5 % del día 29/07/2019
  • 25 - 28 % del día 28/07/2019
  • 26 - 14,2 % del día 27/07/2019
  • 27 - 27,5 % del día 26/07/2019
  • 28 - 27 % del día 25/07/2019
  • 29 - 20,7 % del día 24/07/2019
  • 30 - 17,8 % del día 23/07/2019
  • 31 - 23,8 % del día 22/07/2019
  • 32 - 24,2 % del día 21/07/2019
  • 33 - 37,8 % del día 20/07/2019
  • 34 - 28,6 % del día 19/07/2019
  • 35 - 25,9 % del día 18/07/2019
  • 36 - 31,1 % del día 17/07/2019
  • 37 - 45,1 % del día 16/07/2019
  • 38 - 19,9 % del día 15/07/2019
  • 39 - 21,9 % del día 14/07/2019
  • 40 - 28,6 % del día 13/07/2019
  • 41 - 23,7 % del día 12/07/2019
  • 42 - 28,8 % del día 11/07/2019
  • 43 - 36,3 % del día 10/07/2019
  • 44 - 19,8 % del día 09/07/2019
  • 45 - 37 % del día 08/07/2019
  • 46 - 21,2 % del día 07/07/2019
  • 47 - 24,9 % del día 06/07/2019
  • 48 - 40,5 % del día 05/07/2019
  • 49 - 40,3 % del día 04/07/2019
  • 50 - 31,1 % del día 03/07/2019
  • 51 - 36,2 % del día 02/07/2019
  • 52 - 35,6 % del día 01/07/2019
  • 53 - 18,1 % del día 30/06/2019
  • 54 - 17,6 % del día 29/06/2019
  • 55 - 25,6 % del día 28/06/2019
  • 56 - 35,3 % del día 27/06/2019
  • 57 - 42,3 % del día 26/06/2019
  • 58 - 44,4 % del día 25/06/2019
  • 59 - 38,4 % del día 24/06/2019
  • 60 - 25,9 % del día 23/06/2019

 

|| Temperatura Ambiente|| Velocidad y dirección del viento|| Precipitación|| Radiación Solar Global y PAR|| Temperatura y humedad del suelo|| Presión atmosférica|| Más información|| Volver a la página principal|| Volver al inicio de la página||


Estación Meteorológica de la Universidad de Murcia
http://estacion.um.es/
Informacion actualizada a: 22/08/2019 a las 07:11:00